Location: Unspecified
(0.0000°N, 0.0000°E)
Time: 14:45:47
(UTC+00:00)

FENGYUN 1C DEB - Pass Details

Date: 14 February 2026
Orbit: 814 x 927 km, 98.2° (Epoch: 15 July)

Event Time Altitude Azimuth Distance (km) Brightness Sun altitude
Rises 18:37:00 0° 150° (SSE) 3,383 ? -5.6°
Reaches altitude 10° 18:39:34 10° 140° (SE) 2,458 ? -6.2°
Maximum altitude 18:44:24 33° 77° (ENE) 1,407 ? -7.4°
Drops below altitude 10° 18:49:17 10° 15° (NNE) 2,493 ? -8.6°
Sets 18:51:54 0° 6° (N) 3,438 ? -9.2°
